Location: Emory University Observatory
(33.7903°N, 84.3267°W)
Time: 03:49:03
(UTC-04:00)

Vanguard 1 - Visible Passes

Search period start: 23 October 2017 00:00
Search period end: 02 November 2017 00:00
Orbit: 650 x 3834 km, 34.3° (Epoch: 21 October)

Date Brightness Start Highest point End Pass type
(mag) Time Alt. Az. Time Alt. Az. Time Alt. Az.
23 Oct 13.0 02:29:55 45° E 02:29:55 45° E 02:43:28 10° E visible
23 Oct 12.4 04:42:38 62° W 04:48:02 87° SSW 05:12:09 10° ESE visible
23 Oct 13.1 06:55:21 13° WNW 07:15:13 61° SSW 07:36:42 10° SE visible
24 Oct 12.8 02:49:50 53° E 02:49:50 53° E 03:05:34 10° E visible
24 Oct 12.5 05:02:33 52° W 05:09:51 82° SSW 05:33:49 10° ESE visible
24 Oct 13.2 07:16:03 10° WNW 07:36:31 52° SW 07:57:12 10° SSE visible
25 Oct 13.9 00:57:03 12° ENE 00:57:03 12° ENE 00:58:15 10° ENE visible
25 Oct 12.6 03:09:47 62° E 03:09:47 62° E 03:27:40 10° E visible
25 Oct 12.6 05:22:30 44° W 05:31:34 76° SSW 05:55:15 10° ESE visible
26 Oct 13.8 01:17:02 17° E 01:17:02 17° E 01:20:16 10° E visible
26 Oct 12.5 03:29:46 71° E 03:29:46 71° E 03:49:43 10° E visible
26 Oct 12.7 05:42:30 37° W 05:53:10 68° SSW 06:16:26 10° SE visible
27 Oct 13.6 01:37:04 21° E 01:37:04 21° E 01:42:20 10° E visible
27 Oct 12.3 03:49:48 80° ESE 03:49:48 80° ESE 04:11:39 10° ESE visible
27 Oct 12.8 06:02:32 30° W 06:14:40 59° SSW 06:37:18 10° SE visible
28 Oct 13.5 01:57:08 26° E 01:57:08 26° E 02:04:26 10° E visible
28 Oct 12.3 04:09:52 81° SSW 04:09:52 81° SSW 04:33:24 10° ESE visible
28 Oct 13.0 06:22:36 24° W 06:36:03 50° SW 06:57:50 10° SSE visible
29 Oct 13.3 02:17:14 32° E 02:17:14 32° E 02:26:33 10° E visible
29 Oct 12.3 04:29:58 72° SW 04:31:29 74° SSW 04:54:56 10° ESE visible
29 Oct 13.2 06:42:43 18° W 06:57:20 41° SW 07:17:56 10° SSE visible
30 Oct 13.1 02:37:22 38° E 02:37:22 38° E 02:48:38 10° E visible
30 Oct 12.3 04:50:06 61° WSW 04:53:02 66° SSW 05:16:10 10° SE visible
30 Oct 13.3 07:02:50 12° W 07:18:34 33° SW 07:37:32 10° SSE visible
31 Oct 13.0 02:57:31 44° ESE 02:57:31 44° ESE 03:10:37 10° ESE visible
31 Oct 12.5 05:10:16 50° WSW 05:14:31 57° SSW 05:37:04 10° SE visible
31 Oct 13.5 07:24:38 10° W 07:39:46 25° SW 07:56:25 10° S visible
01 Nov 12.8 03:17:42 49° ESE 03:17:42 49° ESE 03:32:25 10° ESE visible
01 Nov 12.6 05:30:26 41° WSW 05:35:57 48° SSW 05:57:36 10° SSE visible
01 Nov 11.5 20:23:00 10° S 20:25:34 17° SSE 20:25:34 17° SSE visible
